Tracking 29892 objects as of 21-Nov-2024
HD Live streaming from Space Station
objects crossing your sky now

COSMOS 1275 DEB

Track COSMOS 1275 DEB now!
10-day predictions


NORAD ID: 12704
Int'l Code: 1981-053AY
Perigee: 943.1 km
Apogee: 1,066.5 km
Inclination: 83.0 °
Period: 105.1 minutes
Semi major axis: 7375 km
RCS: 0.0194 m2 (small)
Launch date: June 4, 1981
Source: Commonwealth of Independent States (former USSR) (CIS)
Launch site: PLESETSK MISSILE AND SPACE COMPLEX (PKMTR)

Note: This is SATELLITE DEBRIS
Your satellite tracking list
Your tracking list is empty




NASA's NSSDC Master Catalog

Two Line Element Set (TLE):
1 12704U 81053AY  24325.59284450  .00000685  00000-0  73785-3 0  9996
2 12704  82.9909 188.9690 0083655 133.2160 256.7249 13.70521107158632
Source of the keplerian elements: AFSPC